GW6671 Weather Reports


Display with metric or nautical units.
time (UTC)temp
F
wind
direction
speed
MPH
gust
MPH
rain 1hr
in
rain 24hr
in
rain mn
in
humidity
%
barometer
mb
20260505230535 73 334 12.0 20.0 0.00 0.00 0.00 29 1010.0
20260505230045 73 344 11.0 20.0 0.00 0.00 0.00 31 1010.0
20260505225533 73 355 15.0 21.0 0.00 0.00 0.00 25 1010.1
20260505225034 74 15 14.0 21.0 0.00 0.00 0.00 24 1010.0
20260505224546 74 25 14.0 21.0 0.00 0.00 0.00 26 1010.1
20260505224034 73 352 14.0 19.0 0.00 0.00 0.00 29 1010.1
20260505223534 73 346 13.0 21.0 0.00 0.00 0.00 31 1010.1
20260505223042 75 355 13.0 25.0 0.00 0.00 0.00 28 1010.1
20260505222534 74 17 12.0 25.0 0.00 0.00 0.00 25 1010.2
20260505222034 75 5 14.0 25.0 0.00 0.00 0.00 23 1010.2
20260505221546 75 13 12.0 21.0 0.00 0.00 0.00 23 1010.3
20260505221033 75 355 12.0 19.0 0.00 0.00 0.00 23 1010.2
20260505220535 74 323 10.0 17.0 0.00 0.00 0.00 34 1010.3
20260505220059 73 316 7.0 16.0 0.00 0.00 0.00 32 1010.3
20260505215533 73 327 10.0 18.0 0.00 0.00 0.00 33 1010.4
20260505215031 73 343 11.0 24.0 0.00 0.00 0.00 30 1010.4
20260505214551 73 360 15.0 24.0 0.00 0.00 0.00 31 1010.4
20260505214034 73 322 13.0 23.0 0.00 0.00 0.00 28 1010.4
20260505213534 73 10 15.0 23.0 0.00 0.00 0.00 26 1010.4
20260505213044 72 311 10.0 19.0 0.00 0.00 0.00 30 1010.6
20260505212534 73 339 11.0 19.0 0.00 0.00 0.00 31 1010.4
20260505212034 73 323 13.0 19.0 0.00 0.00 0.00 30 1010.6
20260505211545 73 352 12.0 19.0 0.00 0.00 0.00 32 1010.4
20260505211034 73 325 10.0 22.0 0.00 0.00 0.00 33 1010.5
20260505210533 71 321 13.0 22.0 0.00 0.00 0.00 33 1010.6
20260505210046 72 360 14.0 21.0 0.00 0.00 0.00 30 1010.6
20260505205533 73 360 10.0 22.0 0.00 0.00 0.00 33 1010.4
20260505205031 72 347 7.0 22.0 0.00 0.00 0.00 31 1010.6
20260505204547 73 327 14.0 22.0 0.00 0.00 0.00 30 1010.8
20260505204030 73 34 11.0 19.0 0.00 0.00 0.00 27 1010.7
20260505203534 72 317 9.0 23.0 0.00 0.00 0.00 33 1010.5
20260505203035 72 331 14.0 23.0 0.00 0.00 0.00 33 1010.7
20260505202532 72 26 5.0 21.0 0.00 0.00 0.00 33 1010.8
20260505202035 72 12 15.0 21.0 0.00 0.00 0.00 28 1010.7
20260505201548 72 347 9.0 21.0 0.00 0.00 0.00 35 1010.7
20260505201032 73 49 12.0 21.0 0.00 0.00 0.00 28 1010.7
20260505200531 72 333 11.0 20.0 0.00 0.00 0.00 32 1010.8
20260505200042 71 339 13.0 20.0 0.00 0.00 0.00 35 1010.9
20260505195532 71 337 11.0 21.0 0.00 0.00 0.00 33 1010.9
20260505195033 72 341 12.0 21.0 0.00 0.00 0.00 38 1010.9
20260505194540 72 14 15.0 23.0 0.00 0.00 0.00 29 1010.9
20260505194033 71 327 14.0 23.0 0.00 0.00 0.00 30 1010.9
20260505193531 72 5 16.0 23.0 0.00 0.00 0.00 31 1010.8
20260505193042 72 77 16.0 21.0 0.00 0.00 0.00 28 1010.9
20260505192530 71 355 15.0 21.0 0.00 0.00 0.00 32 1010.8
20260505192031 72 321 15.0 25.0 0.00 0.00 0.00 34 1010.8
20260505191537 71 355 13.0 25.0 0.00 0.00 0.00 30 1010.8
20260505191035 72 5 13.0 25.0 0.00 0.00 0.00 30 1010.6
20260505190533 72 360 17.0 25.0 0.00 0.00 0.00 30 1010.7
20260505190043 72 348 14.0 25.0 0.00 0.00 0.00 32 1010.7
20260505185531 72 25 16.0 25.0 0.00 0.00 0.00 34 1010.6
20260505185036 72 355 17.0 24.0 0.00 0.00 0.00 31 1010.6
20260505184550 74 24 13.0 24.0 0.00 0.00 0.00 29 1010.6
20260505184032 73 5 14.0 24.0 0.00 0.00 0.00 30 1010.7
20260505183531 72 360 13.0 24.0 0.00 0.00 0.00 30 1010.7
20260505183049 73 19 12.0 22.0 0.00 0.00 0.00 30 1010.6
20260505182531 72 338 14.0 22.0 0.00 0.00 0.00 31 1010.6
20260505182031 72 355 12.0 21.0 0.00 0.00 0.00 32 1010.6
20260505181539 71 14 12.0 21.0 0.00 0.00 0.00 35 1010.6
20260505181030 72 18 14.0 19.0 0.00 0.00 0.00 31 1010.5
20260505180531 70 5 11.0 18.0 0.00 0.00 0.00 33 1010.5
20260505180040 70 17 12.0 18.0 0.00 0.00 0.00 33 1010.5
20260505175534 70 355 13.0 19.0 0.00 0.00 0.00 35 1010.6
20260505175031 69 340 12.0 19.0 0.00 0.00 0.00 31 1010.4
20260505174537 70 9 13.0 27.0 0.00 0.00 0.00 33 1010.6
20260505174032 69 345 10.0 27.0 0.00 0.00 0.00 41 1010.6
20260505173532 69 23 10.0 19.0 0.00 0.00 0.00 35 1010.5
20260505173043 68 360 9.0 19.0 0.00 0.00 0.00 36 1010.3
20260505172528 68 40 11.0 18.0 0.00 0.00 0.00 36 1010.6
20260505172032 68 11 9.0 18.0 0.00 0.00 0.00 40 1010.6
20260505171546 67 52 8.0 14.0 0.00 0.00 0.00 38 1010.6
20260505171032 66 109 6.0 16.0 0.00 0.00 0.00 41 1010.6
20260505170531 65 101 6.0 16.0 0.00 0.00 0.00 43 1010.6
20260505170043 65 111 4.0 12.0 0.00 0.00 0.00 43 1010.7
20260505165536 65 76 6.0 12.0 0.00 0.00 0.00 44 1010.6
20260505165035 64 83 4.0 8.0 0.00 0.00 0.00 47 1010.6
20260505164553 64 107 4.0 8.0 0.00 0.00 0.00 47 1010.5
20260505164034 63 77 2.0 8.0 0.00 0.00 0.00 45 1010.6
20260505163534 62 105 3.0 10.0 0.00 0.00 0.00 47 1010.7
20260505163039 61 190 3.0 10.0 0.00 0.00 0.00 48 1010.6
20260505162533 61 128 6.0 10.0 0.00 0.00 0.00 49 1010.7
20260505162031 61 88 1.0 7.0 0.00 0.00 0.00 51 1010.7
20260505161549 61 88 3.0 7.0 0.00 0.00 0.00 51 1010.7
20260505161031 60 116 4.0 9.0 0.00 0.00 0.00 54 1010.6
20260505160533 59 100 7.0 9.0 0.00 0.00 0.00 60 1010.8
20260505153045 55 121 4.0 8.0 0.00 0.00 0.00 64 1010.7
20260505152537 55 95 3.0 8.0 0.00 0.00 0.00 63 1010.6
20260505152033 54 140 2.0 6.0 0.00 0.00 0.00 64 1010.5
20260505151538 54 145 2.0 4.0 0.00 0.00 0.00 67 1010.6
20260505151033 53 145 2.0 4.0 0.00 0.00 0.00 66 1010.6
20260505150534 53 145 2.0 4.0 0.00 0.00 0.00 70 1010.5
20260505140537 46 0 0.0 10.0 0.00 0.00 0.00 77 1010.5
20260505125033 37 329 2.0 4.0 0.00 0.00 0.00 84 1009.9
20260505124549 37 0 1.0 3.0 0.00 0.00 0.00 85 1009.8
20260505124029 37 309 1.0 7.0 0.00 0.00 0.00 83 1009.7
20260505123532 38 15 2.0 7.0 0.00 0.00 0.00 82 1009.7
20260505123043 37 0 1.0 6.0 0.00 0.00 0.00 84 1009.6
20260505122533 37 288 2.0 8.0 0.00 0.00 0.00 84 1009.7
20260505122034 37 265 2.0 8.0 0.00 0.00 0.00 83 1009.5
20260505121549 37 0 1.0 6.0 0.00 0.00 0.00 83 1009.5
20260505121031 38 0 1.0 6.0 0.00 0.00 0.00 84 1009.5
20260505120530 37 295 1.0 5.0 0.00 0.00 0.00 86 1009.5
20260505120048 36 287 2.0 4.0 0.00 0.00 0.00 85 1009.5
20260505115531 36 0 0.0 3.0 0.00 0.00 0.00 83 1009.7
20260505115034 36 338 1.0 3.0 0.00 0.00 0.00 84 1009.5
20260505114543 36 338 1.0 3.0 0.00 0.00 0.00 81 1009.5
20260505114031 36 0 1.0 3.0 0.00 0.00 0.00 81 1009.6
20260505113531 36 338 0.0 3.0 0.00 0.00 0.00 83 1009.5
20260505113049 36 338 1.0 5.0 0.00 0.00 0.00 81 1009.5
20260505112531 37 338 2.0 5.0 0.00 0.00 0.00 78 1009.5
20260505112032 38 5 2.0 5.0 0.00 0.00 0.00 76 1009.5
20260505111538 39 360 1.0 8.0 0.00 0.00 0.00 79 1009.5
20260505111031 39 0 2.0 8.0 0.00 0.00 0.00 78 1009.5
20260505110532 40 0 2.0 4.0 0.00 0.00 0.00 80 1009.4
20260505102031 41 310 0.0 4.0 0.00 0.00 0.00 76 1009.4
20260505101546 41 310 0.0 4.0 0.00 0.00 0.00 78 1009.4
20260505101031 40 0 1.0 4.0 0.00 0.00 0.00 78 1009.3
20260505100534 40 0 0.0 4.0 0.00 0.00 0.00 79 1009.3
20260505100039 41 0 0.0 2.0 0.00 0.00 0.00 77 1009.3
20260505095531 40 0 0.0 2.0 0.00 0.00 0.00 79 1009.4
20260505095033 42 284 1.0 2.0 0.00 0.00 0.00 77 1009.3
20260505094545 42 284 0.0 3.0 0.00 0.00 0.00 77 1009.3
20260505094031 40 0 0.0 5.0 0.00 0.00 0.00 79 1009.4
20260505093530 40 284 2.0 5.0 0.00 0.00 0.00 78 1009.5
20260505093050 40 284 3.0 5.0 0.00 0.00 0.00 75 1009.5
20260505092531 42 11 1.0 5.0 0.00 0.00 0.00 72 1009.5
20260505092031 42 11 1.0 5.0 0.00 0.00 0.00 74 1009.4
20260505091540 42 0 0.0 3.0 0.00 0.00 0.00 77 1009.4
20260505091033 41 0 0.0 3.0 0.00 0.00 0.00 82 1009.4
20260505090531 39 355 1.0 3.0 0.00 0.00 0.00 82 1009.5
20260505090044 40 355 1.0 3.0 0.00 0.00 0.00 79 1009.7
20260505085531 40 355 1.0 3.0 0.00 0.00 0.00 78 1009.5
20260505085033 40 355 0.0 3.0 0.00 0.00 0.00 76 1009.5
20260505084553 42 355 0.0 2.0 0.00 0.00 0.00 76 1009.5
20260505084031 41 0 0.0 2.0 0.00 0.00 0.00 77 1009.6
20260505083530 41 355 0.0 2.0 0.00 0.00 0.00 76 1009.6
20260505083051 41 0 0.0 5.0 0.00 0.00 0.00 76 1009.6
20260505082531 41 0 2.0 5.0 0.00 0.00 0.00 75 1009.6
20260505082033 43 360 2.0 5.0 0.00 0.00 0.00 76 1009.7
20260505081549 45 300 1.0 3.0 0.00 0.00 0.00 74 1009.7
20260505081031 44 0 0.0 3.0 0.00 0.00 0.00 74 1009.7
20260505080532 44 300 0.0 4.0 0.00 0.00 0.00 74 1009.7
20260505080043 43 300 2.0 4.0 0.00 0.00 0.00 75 1009.6
20260505075533 45 300 2.0 4.0 0.00 0.00 0.00 71 1009.7
20260505075033 46 300 0.0 3.0 0.00 0.00 0.00 70 1009.7
20260505074550 46 0 1.0 3.0 0.00 0.00 0.00 71 1009.8
20260505074034 45 300 2.0 3.0 0.00 0.00 0.00 72 1009.8
20260505073531 45 300 0.0 3.0 0.00 0.00 0.00 73 1009.8
20260505073039 44 300 0.0 4.0 0.00 0.00 0.00 75 1009.9
20260505072536 45 300 2.0 4.0 0.00 0.00 0.00 71 1009.9
20260505072034 46 0 1.0 4.0 0.00 0.00 0.00 69 1009.8
20260505071545 47 333 1.0 4.0 0.00 0.00 0.00 67 1009.7
20260505071034 48 333 2.0 6.0 0.00 0.00 0.00 64 1009.8
20260505070534 47 329 3.0 6.0 0.00 0.00 0.00 67 1009.6
20260505070047 47 329 3.0 5.0 0.00 0.00 0.00 66 1009.5
20260505065535 48 338 3.0 5.0 0.00 0.00 0.00 64 1009.4
20260505065033 46 336 2.0 6.0 0.00 0.00 0.00 66 1009.3
20260505064540 46 336 3.0 8.0 0.00 0.00 0.00 68 1009.2
20260505064033 46 323 4.0 8.0 0.00 0.00 0.00 69 1009.3
20260505063533 46 294 5.0 8.0 0.00 0.00 0.00 70 1009.1
20260505063047 46 309 4.0 7.0 0.00 0.00 0.00 67 1009.1
20260505062532 50 313 0.0 3.0 0.00 0.00 0.00 56 1009.1
20260505062034 50 0 0.0 3.0 0.00 0.00 0.00 56 1009.0
20260505061538 49 27 2.0 5.0 0.00 0.00 0.00 56 1009.0
20260505061031 48 27 2.0 5.0 0.00 0.00 0.00 58 1009.1
20260505060532 47 0 1.0 4.0 0.00 0.00 0.00 62 1008.9
20260505060040 46 284 1.0 4.0 0.00 0.00 0.00 66 1008.9
20260505055532 49 181 3.0 5.0 0.00 0.00 0.00 58 1008.8
20260505055032 49 178 2.0 7.0 0.00 0.00 0.00 55 1008.7
20260505054538 50 176 4.0 7.0 0.00 0.00 0.00 54 1008.7
20260505054034 51 186 5.0 7.0 0.00 0.00 0.00 50 1008.7
20260505053533 52 195 6.0 7.0 0.00 0.00 0.00 50 1008.8
20260505053105 51 192 4.0 7.0 0.00 0.00 0.00 52 1008.7
20260505052531 51 202 4.0 7.0 0.00 0.00 0.00 60 1008.7
20260505052032 53 157 4.0 11.0 0.00 0.00 0.00 55 1008.6
20260505051538 54 129 6.0 11.0 0.00 0.00 0.00 50 1008.6
20260505051032 54 123 6.0 11.0 0.00 0.00 0.00 52 1008.6
20260505050533 54 125 4.0 9.0 0.00 0.00 0.00 49 1008.5
20260505041545 53 278 3.0 6.0 0.00 0.00 0.00 49 1007.7
20260505041031 55 258 3.0 4.0 0.00 0.00 0.00 46 1007.6
20260505040531 55 265 2.0 4.0 0.00 0.00 0.00 44 1007.5
20260505040042 53 290 2.0 4.0 0.00 0.00 0.00 51 1007.5
20260505035534 56 290 1.0 6.0 0.00 0.00 0.00 40 1007.4
20260505035030 56 308 3.0 6.0 0.00 0.00 0.00 38 1007.4
20260505034538 56 294 2.0 6.0 0.00 0.00 0.00 38 1007.1
20260505034036 55 265 1.0 7.0 0.00 0.00 0.00 42 1007.1
20260505033532 55 290 1.0 8.0 0.00 0.00 0.00 48 1007.0
20260505033045 55 315 4.0 9.0 0.00 0.00 0.00 44 1006.8
20260505032534 57 302 5.0 9.0 0.00 0.00 0.00 40 1006.7
20260505032033 57 308 5.0 10.0 0.00 0.00 0.00 39 1006.8
20260505031545 58 308 7.0 10.0 0.00 0.00 0.00 37 1006.8
20260505031034 57 304 5.0 8.0 0.00 0.00 0.00 41 1006.6
20260505030533 57 289 5.0 8.0 0.00 0.00 0.00 41 1006.6
20260505030046 60 300 5.0 10.0 0.00 0.00 0.00 40 1006.6
20260505025534 65 323 5.0 12.0 0.00 0.00 0.00 28 1006.5
20260505025033 67 360 8.0 12.0 0.00 0.00 0.00 26 1006.4
20260505024540 69 360 8.0 13.0 0.00 0.00 0.00 22 1006.4
20260505024033 69 23 10.0 14.0 0.00 0.00 0.00 20 1006.4
20260505023534 69 352 9.0 14.0 0.00 0.00 0.00 21 1006.3
20260505023046 69 11 6.0 14.0 0.00 0.00 0.00 22 1006.2
20260505022536 70 13 9.0 15.0 0.00 0.00 0.00 20 1006.2
20260505022033 70 15 7.0 15.0 0.00 0.00 0.00 21 1006.3
20260505021537 70 12 9.0 15.0 0.00 0.00 0.00 20 1006.1
20260505021034 71 355 8.0 16.0 0.00 0.00 0.00 20 1006.1
20260505020532 71 352 11.0 18.0 0.00 0.00 0.00 22 1006.2
20260505020045 71 360 10.0 18.0 0.00 0.00 0.00 21 1006.0
20260505015532 69 352 9.0 17.0 0.00 0.00 0.00 23 1006.0
20260505015033 69 348 10.0 16.0 0.00 0.00 0.00 28 1006.1
20260505014544 70 338 10.0 16.0 0.00 0.00 0.00 26 1006.1
20260505014034 70 342 10.0 17.0 0.00 0.00 0.00 24 1006.0
20260505013536 70 355 8.0 17.0 0.00 0.00 0.00 26 1006.2
20260505013043 70 5 11.0 17.0 0.00 0.00 0.00 25 1006.1
20260505012533 71 332 10.0 16.0 0.00 0.00 0.00 24 1006.1
20260505012035 73 25 9.0 15.0 0.00 0.00 0.00 20 1006.0
20260505011557 71 346 9.0 17.0 0.00 0.00 0.00 25 1006.1
20260505011034 71 332 9.0 17.0 0.00 0.00 0.00 23 1006.1
20260505010534 71 355 9.0 16.0 0.00 0.00 0.00 22 1006.3
20260505010039 73 346 12.0 19.0 0.00 0.00 0.00 20 1006.2
20260505005533 73 5 12.0 19.0 0.00 0.00 0.00 18 1006.2
20260505005035 73 360 13.0 19.0 0.00 0.00 0.00 19 1006.2
20260505004547 73 14 12.0 20.0 0.00 0.00 0.00 19 1006.1
20260505004033 74 23 12.0 21.0 0.00 0.00 0.00 17 1006.1
20260505003533 74 355 15.0 21.0 0.00 0.00 0.00 18 1006.1
20260505003052 73 21 11.0 19.0 0.00 0.00 0.00 21 1006.1
20260505002532 74 348 11.0 22.0 0.00 0.00 0.00 26 1006.0
20260505002032 74 336 13.0 22.0 0.00 0.00 0.00 21 1006.0
20260505001558 73 13 12.0 22.0 0.00 0.00 0.00 23 1006.0
20260505001032 73 340 13.0 19.0 0.00 0.00 0.00 24 1006.0
20260505000533 75 5 13.0 19.0 0.00 0.00 0.00 25 1005.8
20260505000100 72 355 12.0 16.0 0.00 0.00 0.00 27 1005.8
20260504235533 70 352 9.0 15.0 0.00 0.00 0.00 27 1005.8
20260504235033 74 350 10.0 18.0 0.00 0.00 0.00 22 1005.9
20260504234540 74 17 12.0 18.0 0.00 0.00 0.00 22 1005.8
20260504234032 75 5 14.0 20.0 0.00 0.00 0.00 22 1005.8
20260504233533 76 347 14.0 23.0 0.00 0.00 0.00 22 1005.8
20260504233051 76 360 15.0 23.0 0.00 0.00 0.00 20 1005.8
20260504232532 74 5 13.0 23.0 0.00 0.00 0.00 22 1005.9
20260504232034 72 342 9.0 16.0 0.00 0.00 0.00 31 1006.0
20260504231546 75 355 11.0 19.0 0.00 0.00 0.00 28 1006.1
20260504231033 75 344 11.0 19.0 0.00 0.00 0.00 28 1006.1